RH
66 66 70 74 77 80 82 81 76 74 86 92 93 94 94 94 85 82 73 82 78 76 69 69 69 70 72 79 79 80 82 81 79 78 76 74 72 70 68 65 66 73 74
66 69 72 73 76 85 86 86 85 78 77 87 91 91 94 92 88 84 77 79 80 76 72 69 70 72 71 73 79 80 83 80 78 77 75 73 70 70 67 65 76 74 71
66 68 73 71 75 76 76 85 87 89 89 84 90 92 95 93 95 89 87 81 79 81 76 68 67 70 74 73 75 77 80 82 81 77 75 72 70 70 66 65 73 72 72
67 72 75 74 74 72 76 91 93 93 96 96 96 89 91 94 95 94 92 92 82 76 78 74 72 66 68 75 73 74 79 82 83 82 76 72 71 68 66 70 77 74 69
71 77 80 78 74 75 77 91 92 94 95 96 90 92 94 92 92 82 87 85 89 89 84 80 80 82 81 70 72 73 72 79 84 82 80 77 72 69 67 67 74 68 64
74 78 81 79 78 78 80 90 93 93 91 92 78 80 93 90 89 94 90 81 83 82 86 79 78 81 91 84 75 71 71 73 82 84 81 79 74 70 69 66 71 67 65
72 76 83 83 83 82 82 79 87 90 92 89 93 95 93 87 89 91 94 94 88 83 84 82 77 86 91 89 86 82 78 71 76 86 82 82 77 72 69 67 67 69 65
72 67 78 82 81 87 84 84 86 90 93 83 82 85 96 85 83 91 96 92 92 93 89 81 80 76 89 96 95 89 83 76 72 74 84 79 77 75 70 68 68 70 67
72 74 76 78 80 82 86 86 86 86 90 81 72 80 87 93 94 88 91 94 93 96 95 87 82 84 85 93 94 94 92 89 81 73 68 76 79 76 72 70 70 70 68
74 75 78 80 82 84 83 86 73 83 80 82 80 68 76 79 91 96 90 92 94 94 94 93 91 90 91 93 94 97 95 94 87 82 74 69 79 79 76 73 75 71 71
78 73 76 79 83 88 90 91 92 93 89 89 90 88 87 85 89 99 88 92 92 91 94 95 95 94 89 92 96 97 95 92 85 77 77 75 73 74 86 83 74 83 74
84 79 69 77 80 83 86 87 88 91 92 85 86 92 90 94 95 95 97 88 85 80 90 94 96 96 95 95 94 97 96 94 89 86 78 76 76 75 80 91 88 81 79
73 74 64 82 85 85 86 84 78 73 80 93 94 88 93 95 89 91 96 96 98 95 93 93 94 96 96 96 96 98 97 95 93 85 86 79 78 81 82 83 85 87 86
69 64 76 80 82 84 84 83 76 75 76 86 84 85 86 86 88 90 92 98 91 82 94 89 93 96 96 97 97 95 96 95 94 93 93 90 87 91 92 89 88 89 84
60 68 79 80 84 85 85 81 76 76 84 86 87 90 89 87 92 93 90 92 89 94 91 91 94 94 96 97 95 94 96 95 94 93 90 90 89 97 98 96 96 97 92
71 81 81 84 86 86 83 78 83 85 88 87 85 84 91 85 85 90 95 94 96 96 95 91 97 97 97 96 95 97 99 98 96 94 95 97 92 87 89 92 96 96 95
83 85 84 83 76 71 73 81 84 84 86 88 86 89 88 84 86 87 90 91 94 97 97 89 96 97 97 98 97 98 98 99 99 97 95 94 96 98 97 96 95 93 91
68 74 71 70 73 74 76 83 86 88 86 86 85 89 91 83 90 92 93 91 93 95 99 98 96 98 98 98 99 99 98 97 99 98 93 92 91 91 92 93 94 92 91
72 69 70 77 81 81 81 81 84 85 87 88 91 94 92 91 94 96 95 98 97 95 98 98 97 98 98 99 99 97 98 98 95 95 95 92 91 90 89 89 89 90 90
76 79 82 86 82 82 82 83 86 89 92 92 92 93 94 96 98 98 98 98 98 98 98 98 99 99 98 99 98 99 99 98 98 91 94 94 92 88 87 86 87 90 89
90 90 91 82 83 84 82 90 91 93 93 93 92 90 92 94 94 91 93 97 98 99 99 100 99 99 99 99 99 99 99 98 98 98 98 98 98 97 97 90 88 87 85
91 91 83 85 85 81 90 86 92 91 92 92 94 92 90 91 90 88 90 90 93 98 99 99 99 99 98 98 99 99 99 99 100 98 98 99 98 98 97 97 90 88 85
87 85 84 86 87 90 88 87 89 90 93 93 91 91 88 88 92 92 88 90 92 91 93 98 98 99 98 97 97 99 99 99 100 100 100 100 100 99 96 85 82 74 73
86 86 85 85 88 88 87 86 87 82 84 87 88 86 94 93 90 86 84 83 86 93 94 91 96 98 97 96 95 94 96 99 99 100 100 98 100 96 71 63 48 52 55
87 86 82 89 86 88 85 81 82 84 70 75 78 81 90 89 74 71 77 78 72 72 64 73 79 84 85 87 87 95 98 96 94 86 86 69 65 63 64 62 66 52 53
85 82 83 89 83 86 85 72 73 69 72 75 72 74 73 76 65 66 74 74 74 72 73 75 74 75 76 73 74 84 89 92 92 87 74 85 71 82 86 68 66 64 69
Wind_Speed
5 4 4 3 3 3 3 4 3 3 4 4 3 3 3 4 4 2 1 4 5 4 6 7 8 8 10 10 13 14 14 15 15 14 14 13 13 13 12 12 12 11 13
4 4 4 4 4 3 3 3 3 3 2 2 3 3 4 4 3 3 1 1 2 3 5 8 10 11 12 12 13 15 17 17 17 16 16 15 14 14 14 13 12 15 13
5 4 3 3 3 3 5 4 4 4 4 4 4 3 4 5 5 4 3 3 2 3 6 9 11 13 14 14 16 17 18 20 19 18 17 17 16 15 16 16 17 17 16
6 5 4 3 3 3 2 2 3 4 4 4 4 5 4 4 5 5 4 4 3 3 5 9 11 14 16 16 17 17 18 20 19 19 19 18 17 18 17 15 18 18 17
6 5 4 4 5 4 4 2 3 3 2 4 4 4 4 4 5 3 5 5 5 5 4 6 10 10 12 17 18 18 19 20 22 21 20 19 19 20 20 19 18 17 16
6 5 4 5 5 3 3 2 1 1 2 2 4 5 5 5 5 5 6 5 4 5 5 6 5 4 8 13 16 19 20 19 22 24 23 22 22 22 22 22 21 19 18
5 5 4 5 5 4 4 3 1 2 2 2 2 3 4 6 6 6 5 3 5 5 5 5 4 3 4 10 12 15 17 19 20 22 25 26 22 24 24 24 24 22 21
5 4 4 4 5 4 5 5 4 3 2 3 2 3 4 5 4 3 2 3 6 4 5 5 4 3 3 4 5 9 13 17 20 22 21 24 24 25 25 26 25 24 22
4 5 5 4 5 4 3 4 4 4 2 3 4 2 3 2 4 3 2 3 4 3 5 5 5 3 3 2 5 6 8 11 17 22 24 23 27 27 30 29 27 26 24
4 4 5 5 5 4 5 4 4 3 3 4 3 3 4 4 3 4 3 3 3 5 5 4 5 5 4 3 4 6 9 10 15 17 20 24 28 32 31 31 29 27 25
6 4 5 5 5 4 4 5 5 6 3 2 2 4 6 4 4 4 8 4 2 4 4 4 5 5 5 4 4 5 10 14 19 19 21 20 25 25 26 33 29 28 30
4 5 5 4 3 3 3 3 3 4 4 6 4 3 4 4 3 3 3 4 5 5 3 4 4 4 4 4 5 7 10 13 15 18 20 23 23 21 24 25 29 31 26
3 4 5 5 4 5 5 5 4 4 5 4 5 6 3 4 6 4 1 3 3 2 3 3 4 5 4 4 4 5 10 12 13 16 18 20 20 19 21 27 33 31 33
2 3 5 5 6 6 5 6 3 3 3 4 7 8 7 6 5 5 3 2 7 6 3 7 3 4 2 2 2 3 4 11 14 14 16 17 16 13 7 14 29 29 29
4 6 5 5 6 6 6 6 4 6 4 5 5 6 6 6 5 5 5 4 5 6 4 3 2 2 2 1 2 2 3 8 14 15 14 14 9 4 7 2 5 8 7
6 5 6 5 5 5 5 6 5 5 5 6 5 6 6 6 6 4 4 4 4 6 7 2 3 2 1 1 1 1 1 7 9 13 10 7 10 7 6 8 10 11 10
5 5 5 5 6 7 6 6 7 7 7 7 7 7 8 7 6 4 3 4 4 4 7 6 2 2 2 2 2 2 4 1 4 8 2 7 6 1 3 5 7 11 11
7 6 7 7 7 6 6 6 8 7 7 9 9 8 9 6 7 6 4 6 4 4 4 8 3 3 5 0 0 1 3 5 5 4 2 11 14 14 14 14 13 15 14
6 7 7 6 7 7 6 7 6 8 8 9 9 8 8 8 7 5 6 4 4 4 4 5 5 1 1 1 2 2 2 4 4 9 9 5 12 15 15 14 15 12 13
5 5 5 5 6 7 7 6 8 8 7 6 4 4 5 6 5 6 6 6 5 5 5 5 4 2 1 1 1 1 1 3 3 5 11 11 9 9 13 14 12 11 8
4 5 5 5 6 6 5 8 6 5 4 2 3 4 6 6 9 7 4 5 6 4 5 3 1 2 2 2 3 2 2 1 2 2 3 3 3 4 5 7 9 9 8
4 5 5 6 6 5 12 10 6 3 3 3 4 4 3 5 6 11 12 13 8 4 3 1 0 2 1 1 1 2 2 2 2 1 0 1 2 2 2 2 6 7 6
3 4 5 6 6 6 13 8 6 3 2 3 4 3 5 4 5 4 10 14 16 17 13 3 3 4 3 1 2 2 2 2 1 1 1 1 2 1 1 1 1 4 6
3 3 4 5 5 5 11 9 6 3 3 4 5 4 4 4 5 4 6 8 10 11 10 7 7 5 4 4 3 2 3 3 3 3 2 2 2 1 1 1 1 1 2
3 3 2 5 6 5 12 6 5 4 3 5 5 4 5 4 7 9 7 7 8 7 11 18 19 18 16 13 8 3 3 2 2 1 1 1 0 1 2 2 2 2 1
4 2 2 2 7 4 11 9 4 0 3 3 5 6 12 9 12 13 7 5 7 5 6 7 6 10 11 11 16 7 3 3 1 3 3 2 2 2 2 1 1 2 2
Wind_Direction
37 37 24 33 33 27 34 21 21 28 2 344 12 5 305 287 276 271 242 199 210 248 241 239 244 233 227 214 203 197 194 187 183 181 181 187 188 184 183 185 185 166 159
41 30 16 16 14 11 23 16 356 336 335 321 309 320 308 310 307 316 308 216 238 256 270 264 255 256 245 227 217 209 201 200 194 191 190 191 192 192 196 193 187 169 165
50 39 26 9 11 3 15 5 358 22 11 347 311 306 287 285 287 281 274 265 254 249 268 272 268 258 257 247 225 222 215 206 199 198 197 196 194 201 198 200 191 176 170
42 35 22 6 344 2 19 30 19 14 20 0 335 318 309 288 281 285 281 276 257 245 244 256 263 260 257 255 248 233 226 218 209 200 200 200 199 200 202 205 194 179 172
35 32 10 354 7 8 5 329 17 69 12 327 325 319 329 320 302 292 272 279 262 242 231 248 253 257 259 257 258 248 237 226 220 210 202 201 203 202 204 202 199 194 195
30 25 14 8 15 12 18 349 325 303 216 273 307 306 293 283 271 253 254 257 278 281 244 230 242 255 257 260 260 261 253 232 228 217 206 202 203 203 208 208 205 197 191
26 33 16 10 8 14 348 6 352 279 325 262 330 315 299 265 260 253 244 250 269 271 312 279 233 235 266 266 262 258 261 249 235 230 227 208 203 204 214 211 210 203 201
23 31 28 14 15 9 2 358 26 337 282 290 287 326 329 327 334 285 255 246 270 284 279 292 264 218 255 265 262 268 273 263 252 243 227 226 217 209 215 215 210 205 204
34 36 25 23 12 18 1 349 347 347 289 313 331 247 313 283 339 320 310 237 258 285 283 274 284 302 307 299 291 293 284 280 276 259 251 236 226 217 213 214 210 206 204
40 50 44 24 10 1 1 348 347 334 349 332 331 297 255 256 264 310 329 329 303 274 270 277 273 261 251 267 288 290 294 294 284 279 265 254 237 230 219 214 210 201 202
19 17 60 34 23 19 4 12 0 352 334 303 312 325 314 268 245 243 290 289 327 291 274 261 261 263 261 270 268 259 280 286 282 277 282 274 253 253 226 219 207 203 199
354 350 16 7 342 313 307 316 330 340 332 323 318 281 277 295 291 275 282 284 280 290 267 271 254 251 252 249 259 273 288 292 296 290 281 273 266 259 248 215 208 208 197
351 319 343 346 339 326 314 273 266 310 317 307 306 300 273 268 287 269 224 272 275 291 297 270 252 231 233 233 253 308 302 305 299 291 281 278 278 277 260 240 221 203 200
311 325 357 341 335 336 328 315 306 308 272 266 296 299 296 286 277 275 251 236 291 281 308 258 298 258 247 245 256 322 322 313 304 296 298 297 299 296 293 265 234 212 212
8 7 351 350 357 353 335 319 313 296 284 276 264 279 291 288 264 264 253 242 247 282 255 277 293 358 348 350 356 11 329 310 310 296 291 278 257 230 234 265 192 199 220
19 356 350 357 348 332 324 327 312 290 281 279 268 254 271 275 288 264 252 259 249 259 275 213 235 276 277 236 299 342 49 326 318 290 291 297 215 224 204 175 182 203 217
10 353 341 340 333 328 320 310 298 293 288 284 278 268 271 276 269 271 266 255 251 238 275 281 245 238 268 263 315 338 11 257 356 299 132 77 62 287 257 231 180 156 149
343 338 341 334 321 311 302 306 301 303 302 293 286 278 271 276 273 269 258 260 254 252 252 275 230 237 219 13 342 346 329 308 96 17 340 113 101 95 86 93 94 112 110
342 333 331 322 315 310 314 306 302 298 292 283 281 268 269 270 266 275 272 268 260 253 237 263 272 245 201 97 49 19 4 3 7 43 64 37 111 114 110 105 105 104 114
329 343 331 313 320 315 310 304 301 298 289 286 346 34 36 28 4 327 287 280 269 266 260 260 246 192 197 72 108 227 124 28 352 23 49 41 39 102 112 109 102 100 110
345 339 323 329 325 321 314 313 314 313 322 354 41 50 47 39 32 34 21 1 343 299 266 230 191 177 204 180 194 176 100 76 43 340 47 21 28 355 37 80 99 99 95
353 341 339 333 333 327 318 336 359 349 1 29 42 50 46 26 42 53 52 45 39 360 357 345 204 243 206 195 121 129 117 145 189 315 64 64 9 9 12 50 102 106 91
347 343 341 337 333 325 339 346 2 1 1 40 45 47 64 45 40 47 55 50 42 47 47 5 52 17 13 36 113 98 94 74 83 47 52 78 0 335 316 5 204 176 161
352 345 337 336 331 338 356 10 24 15 36 38 34 41 57 60 57 58 58 53 41 39 47 49 64 58 56 38 67 100 93 87 74 64 40 70 13 359 237 296 300 219 176
333 332 356 354 344 352 359 5 13 21 48 53 39 50 59 63 63 65 61 57 53 36 46 56 57 60 62 71 78 77 52 53 75 63 53 99 127 56 21 27 354 26 348
301 294 328 28 3 4 5 11 15 97 73 59 46 39 67 80 78 80 77 76 74 42 38 33 24 37 39 41 46 42 25 83 91 32 342 64 15 24 5 352 349 26 21